Showing default

OPS 9331 (IDSCS 16), 2862

Orbit data source: Space-Track

OPS 9331 (IDSCS 16), 2862 is a payload satellite owned by SAMSO (US) in GEO that was launched on Sat, 01 Jul 1967 UTC via a TITAN IIIC launch vehicle from the Air Force Eastern Test Range (AFETR). Payloads include a variety of satellites, spacecraft, and rockets equipped with specific instruments for various scientific and technological missions. These include communications satellites like Starlink; space stations such as the ISS; scientific satellites like the Hubble; Earth observation satellites from companies like Planet Labs, Umbra, and HawkEye 360; GPS; miniature CubeSats for education and research; and military/defense satellites.

Loading next visibility...
OPS 9331 (IDSCS 16) details
Identifier
2862, 1967-066A
Orbit
GEO
Last TLE update23 hours ago
Origin
Flag of USSAMSO (US)
ManufacturerPhilco-Ford WDL
MissionNon-operational Defense Communications
Bus & MotorIDCSP, Unknown motor
Mass45 kg wet, 45 kg dry
Launch date (UTC)
1967-07-01 (57 years ago)
Launch vehicle
TITAN IIIC
Launch site
Air Force Eastern Test Range (AFETR)
Object type
Payload
Rocket body
Debris
Shape & HBRPoly, 0.9 m
Radar Cross Section0.926 m², Medium (>0.1 m² and < 1m²)

Expand to show TLE details & history

TLE from 23 hours ago
0 OPS 9331 (IDSCS 16)
1 02862U 67066A   24355.56462076 -.00000069  00000-0  00000-0 0  9994
2 02862   1.6463 116.1391 0064003 212.1278 172.7401  1.09955402131224
Epoch: 2024-12-20T13:33Z
Definitive object data (Epoch: 2024-12-20T13:33:03.233Z)
Latitude0.70918°
Longitude-151.7997°
Altitude33,524.014 km
Speed3.151 km/s
True Right ascension09h 24m 22s
True Declination0° 42' 30"
Sunlit
Object was in daylight at TLE epoch
Visualization TLE readout
Latitude1.10017°
Longitude-135.35142°
Altitude33,522.254 km
Speed3.151 km/s
Apparent Right ascension10h 22m 35s
Apparent Declination-5° 22' 19"
Sunlit
Object is in daylight
Visualization observer readout
Local Sidereal Time11:25:02
Azimuth201.306° SSW
Elevation42.483°
Doppler factor1
Orbital elements
Apogee altitude33,528.087 km
Perigee altitude33,020.512 km
Semi-major axis39,652.437 km
Eccentricity0.0064003
Inclination1.6463°
RAAN116.1391°
Arg. of periapsis212.1278°
True anomaly172.83205°
Mean anomaly172.7401°
Eccentric anomaly172.78615°
Mean motion0.27488 °/min
BSTARUnknown
Orbital period1309.68 mins
Loading historical data...
2862 neighbors
Authenticating...
Loading maneuver chart data...
Loading historical data...
Loading historical data...
Loading historical data...
Loading historical data...
Loading historical data...
Loading historical data...
Loading historical data...

OPS 9331 (IDSCS 16) Visibility forecast

Observer location: undefined°, undefined

Span
Click to sort rows by Start time (UTC) header in descending order
Start Az.
Max El. time (UTC)
Max El. Az.
Max El.
End time (UTC)
End Az.
1440 mins2024-12-21 12:23:14.875Z201.298° SSW2024-12-21 17:06:14.875Z191.88° SSW34.948°2024-12-22 12:23:14.875Z148.5° SSE
|